Regional Weather Roundup
Issued by NWS

Home | Current Version | Previous Version | Graphics & Text | Print | Product List | Glossary On
Versions: 1 2 3 4 5 6 7 8 9 10 11 12 13 14 15 16 17 18 19 20 21 22 23 24 25 26 27 28 29 30 31 32 33 34 35 36 37 38 39 40 41 42 43 44 45 46 47 48 49 50
000
ASUS43 KDTX 220201
RWRMI
MICHIGAN HOURLY REGIONAL WEATHER ROUNDUP
NATIONAL WEATHER SERVICE DETROIT/PONTIAC MI
1000 PM EDT SUN SEP 21 2014

NOTE: "FAIR" INDICATES FEW OR NO CLOUDS BELOW 12,000 FEET WITH NO
SIGNIFICANT WEATHER AND/OR OBSTRUCTION TO VISIBILITY.

MIZ047>049-052>055-059>063-066>070-074>076-081>083-220300-
SOUTHEAST LOWER MICHIGAN

CITY           SKY/WX    TMP DP  RH WIND       PRES   REMARKS
ADRIAN         CLOUDY    54  48  80 NW8       29.99R
ALMA           CLOUDY    48  40  71 NW14G22   30.04R
ANN ARBOR      CLOUDY    52  45  77 N12G23    29.96R
BAD AXE        CLOUDY    49  47  92 NW13      29.95R
CARO           CLOUDY    49  44  82 N12       29.97R
DETROIT CITY   CLOUDY    54  48  80 NW12G21   29.94R
DETROIT        CLOUDY    53  48  83 NW10      29.96R
FLINT          CLOUDY    52  44  74 NW15      29.99R
GROSSE ILE     CLOUDY    55  48  76 NW13G20   29.94R
HILLSDALE      CLOUDY    55  50  85 NW9       29.99R
HOWELL         CLOUDY    49  45  87 NW13G18   29.99R

CITY           SKY/WX    TMP DP  RH WIND       PRES   REMARKS
JACKSON        LGT RAIN  50  47  89 N12G18    30.00R
LAMBERTVILLE   CLOUDY    54  48  82 NW9       29.98R
LANSING        CLOUDY    50  41  71 N13       30.03R
LAPEER         DRIZZLE   48  47  93 NW12G22   29.96R
MASON          CLOUDY    50  43  76 N13G21    30.01R
MONROE         CLOUDY    54  48  82 NW9G20    29.95R
MT. CLEMENS    LGT RAIN  53  50  91 NW10      29.91R
PONTIAC        CLOUDY    51  46  83 NW16G25   29.95R
PORT HOPE        N/A     53  44  71 VRB3      29.92R
PORT HURON     DRIZZLE   50  50 100 NW7       29.91R
TRI CITIES     CLOUDY    50  39  66 NW17      30.02R
TROY           CLOUDY    54  47  77 NW14G22   29.96R
SAGINAW HB     CLOUDY    50  41  71 NW15G22   29.99R
$$
MIZ043>046-050>051-056>058-064>065-071>073-077>080-220300-
SOUTHWEST LOWER MICHIGAN

CITY           SKY/WX    TMP DP  RH WIND       PRES   REMARKS
BATTLE CREEK   MOCLDY    51  42  71 NW12      30.04R
BENTON HARBOR  CLOUDY    54  45  71 VRB7G23   30.08R
BIG RAPIDS     CLOUDY    46  42  86 N10       30.05R
COLDWATER      PTCLDY    52  47  81 NW9       30.02R
FREMONT        MOCLDY    47  38  71 N12G17    30.07R
HOLLAND        PTCLDY    50  42  74 N8        30.09R
GRAND RAPIDS   CLOUDY    50  40  68 NW16      30.07R
IONIA          CLOUDY    49  40  71 NW9G16    30.04R
KALAMAZOO      CLEAR     50  41  71 NW20G29   30.06R
LUDINGTON      CLOUDY    49  41  73 N13G26    30.10R
MARSHALL       CLOUDY    50  44  80 NW12G22   30.02R
MOUNT PLEASANT CLOUDY    48  39  71 NW9G23    30.03R
MUSKEGON       PTCLDY    49  40  71 N12       30.09R
SOUTH HAVEN    CLOUDY    55  46  73 N10G17    30.08R
$$
MIZ016>042-220300-
NORTHERN LOWER MICHIGAN

CITY           SKY/WX    TMP DP  RH WIND       PRES   REMARKS
ALPENA         CLOUDY    49  40  71 NW9       29.97
BEAVER ISLAND  CLOUDY    47  40  77 NW12G18   30.07R
BELLAIRE       CLOUDY    48  40  72 NW5       30.05S
CADILLAC       CLOUDY    44  40  87 NW14      30.04R
CHARLEVOIX     CLOUDY    50  41  71 NW16G24   30.08R
FRANKFORT      CLOUDY    49  38  66 N12G22    30.10R
GAYLORD        CLOUDY    45  37  73 VRB7      30.02R
GRAYLING       CLOUDY    48  41  75 N12G18    30.03R
HARBOR SPRINGS CLOUDY    49  39  69 CALM      30.04R
HOUGHTON LAKE  CLOUDY    46  38  73 N14G23    30.02R
MANISTEE       CLOUDY    48  37  66 N14G22    30.10R
OSCODA         CLOUDY    47  44  87 NW8       29.96R
PELLSTON       CLOUDY    48  41  76 NW12      30.04R
ROGERS CITY    CLOUDY    49  39  69 N16G24    30.00R
TRAVERSE CITY  CLOUDY    49  38  65 N14G24    30.06R
$$
MIZ007>008-015-220300-
EASTERN UPPER MICHIGAN

CITY           SKY/WX    TMP DP  RH WIND       PRES   REMARKS
KINROSS        CLOUDY    48  37  66 N7        30.02R
MACKINAC ISLAN CLOUDY    47  41  79 NW10G16   30.02R
NEWBERRY       CLOUDY    44  38  80 NW7       30.05R
S. S. MARIE    CLOUDY    49  35  58 N7        30.01R
$$
MIZ004>006-011>014-085-220300-
CENTRAL UPPER MICHIGAN

CITY           SKY/WX    TMP DP  RH WIND       PRES   REMARKS
MANISTIQUE     CLEAR     42  37  85 NW8       30.08S
ESCANABA       MOCLDY    45  37  76 NW3       30.12S
MENOMINEE      CLEAR     41  37  87 CALM      30.13R
SAWYER-GWINN   CLOUDY    43  37  81 NW7       30.12R
$$
MIZ001>003-009>011-084-220300-
WESTERN UPPER MICHIGAN

CITY           SKY/WX    TMP DP  RH WIND       PRES   REMARKS
IRON MOUNTAIN  CLEAR     41  37  86 NW5       30.12R
HOUGHTON       CLEAR     36  33  89 CALM      30.14R
COPPER HARBOR    N/A     44  39  82 NW5       30.14S
IRONWOOD       CLEAR     39  39 100 W3        30.14S
$$

ABBREVIATIONS USED IN REMARKS
   TC - TEMPERATURE IN CELSIUS
  WCI - WIND CHILL INDEX
   HX - HEAT INDEX
  VSB - VISIBILITY



USA.gov is the U.S. government's official web portal to all federal, state and local government web resources and services.